{"data":{"norad_id":61525,"epoch":"2026-09-21T10:24:16.039872Z","epoch_age_seconds":111444,"freshness":"FRESH","line1":"1 61525U 24183S   26264.43351898  .00000757  00000+0  36151-4 0  9996","line2":"2 61525  53.1627 311.6741 0001224  99.3696 260.7444 15.31699206109648","mean_motion":15.31699206,"eccentricity":0.0001224,"inclination_deg":53.1627,"raan_deg":311.6741,"arg_perigee_deg":99.3696,"mean_anomaly_deg":260.7444,"bstar":3.6151e-5,"rev_number":10964,"period_min":94.013236695508,"perigee_km":469.90405926543,"apogee_km":471.58066493327,"semimajor_km":6848.8793620994,"source":"CELESTRAK","updated_at":"2026-09-22T09:00:49.358467Z"}}